Location: Czekan�w
(50.3488°N, 18.7344°E)
Time: 04:52:19
(UTC+00:00)

ALOS - Pass Details

Date: 17 February 2020
Orbit: 683 x 685 km, 97.8° (Epoch: 02 April)

Event Time Altitude Azimuth Distance (km) Brightness Sun altitude
Rises 05:11:37 0° 5° (N) 3,063 5.6 -7.4°
Reaches altitude 10° 05:14:07 10° 354° (N) 2,142 4.7 -7.0°
Maximum altitude 05:18:03 27° 297° (WNW) 1,296 3.2 -6.4°
Drops below altitude 10° 05:21:58 10° 240° (WSW) 2,128 4.4 -5.7°
Sets 05:24:27 0° 228° (SW) 3,039 5.3 -5.4°
